Simultaneous Nadir Overpasses (SNOs) Predictions

Prediction of SNOs between GOES-16 and AQUA Satellite Orbit:

Table of predicted SNOs for the next 14.0 days since TLE Epoch: 4/6/2018
Index Date Time (GOES-16) GOES-16 Lat,Lon AQUA Lat,Lon Distance(km) Time Diff (sec)
1 04/08/2018 06:18:11 0.01, -75.18 -0.87, -70.93 482.36 80
2 04/08/2018 18:39:35 -0.01, -75.19 -0.22, -76.13 106.76 80
3 04/10/2018 18:30:04 -0.01, -75.20 0.41, -73.17 229.74 80
4 04/11/2018 06:51:19 0.02, -75.19 0.71, -78.33 357.30 80
5 04/13/2018 06:39:08 0.02, -75.20 0.08, -75.38 20.28 80
6 04/15/2018 06:24:18 0.01, -75.22 -0.56, -72.42 317.43 80
7 04/15/2018 18:45:41 -0.02, -75.23 -0.52, -77.62 271.70 80
8 04/17/2018 18:36:10 -0.01, -75.25 0.12, -74.67 66.30 80
9 04/19/2018 18:23:59 -0.01, -75.27 0.76, -71.71 404.45 80
10 04/20/2018 06:45:15 0.01, -75.27 0.35, -76.87 181.83 80




NCC Satellite Simultaneous Nadir Overpasses (SNOs) Prediction Service
